HISPASAT 30W-6

Last updated on Tue Sep 22 2026 00:03:14 GMT+0000 (Coordinated Universal Time)

1 43228U 18023A 26264.41185034 -.00000220 00000+0 00000+0 0 9992 2 43228 0.0475 28.9893 0003237 117.2272 332.3511 1.00271249 31371
UTC large
Height (km)
Speed (km/s)
/
Latitude / Longitude
Inclination (degrees)
Orbital Period (minutes)
Azimuth
Elevation
Range (km)
Doppler Factor

Next 0 passes for location: London (51.5072 / 0.1276)

No passes found over London.
HISPASAT 30W-6